owner,sensor,date,latitude,longitude,air_temperature,qcFlag 
DISL,ioos:station:DISL:DISL:1,2013-11-01T00:00:00Z,30.2513,-88.0778,24.62,1111122 
DISL,ioos:station:DISL:DISL:1,2013-11-01T00:30:00Z,30.2513,-88.0778,24.69,1111122 
DISL,ioos:station:DISL:DISL:1,2013-11-01T01:00:00Z,30.2513,-88.0778,24.46,1111122 
DISL,ioos:station:DISL:DISL:1,2013-11-01T01:30:00Z,30.2513,-88.0778,24.53,1111122 
DISL,ioos:station:DISL:DISL:1,2013-11-01T02:00:00Z,30.2513,-88.0778,24.56,1111122 
DISL,ioos:station:DISL:DISL:1,2013-11-01T02:30:00Z,30.2513,-88.0778,24.59,1111122 
DISL,ioos:station:DISL:DISL:1,2013-11-01T03:00:00Z,30.2513,-88.0778,24.59,1111122 
DISL,ioos:station:DISL:DISL:1,2013-11-01T03:30:00Z,30.2513,-88.0778,24.49,1111122 
DISL,ioos:station:DISL:DISL:1,2013-11-01T04:00:00Z,30.2513,-88.0778,24.7,1111122 
DISL,ioos:station:DISL:DISL:1,2013-11-01T04:30:00Z,30.2513,-88.0778,24.62,1111122 
DISL,ioos:station:DISL:DISL:1,2013-11-01T05:00:00Z,30.2513,-88.0778,24.38,1111122 
DISL,ioos:station:DISL:DISL:1,2013-11-01T05:30:00Z,30.2513,-88.0778,24.29,1111122 
DISL,ioos:station:DISL:DISL:1,2013-11-01T06:00:00Z,30.2513,-88.0778,24.2,1111122 
DISL,ioos:station:DISL:DISL:1,2013-11-01T06:30:00Z,30.2513,-88.0778,24.27,1111122 
DISL,ioos:station:DISL:DISL:1,2013-11-01T07:00:00Z,30.2513,-88.0778,24.4,1111122 
DISL,ioos:station:DISL:DISL:1,2013-11-01T07:30:00Z,30.2513,-88.0778,24.57,1111122 
DISL,ioos:station:DISL:DISL:1,2013-11-01T08:00:00Z,30.2513,-88.0778,24.7,1111122 
DISL,ioos:station:DISL:DISL:1,2013-11-01T08:30:00Z,30.2513,-88.0778,24.52,1111122 
DISL,ioos:station:DISL:DISL:1,2013-11-01T09:00:00Z,30.2513,-88.0778,24.56,1111122 
DISL,ioos:station:DISL:DISL:1,2013-11-01T09:30:00Z,30.2513,-88.0778,24.62,1111122 
DISL,ioos:station:DISL:DISL:1,2013-11-01T10:00:00Z,30.2513,-88.0778,24.49,1111122 
DISL,ioos:station:DISL:DISL:1,2013-11-01T10:30:00Z,30.2513,-88.0778,23.29,1111122 
DISL,ioos:station:DISL:DISL:1,2013-11-01T11:00:00Z,30.2513,-88.0778,23.34,1111122 
DISL,ioos:station:DISL:DISL:1,2013-11-01T11:30:00Z,30.2513,-88.0778,23.17,1111122 
DISL,ioos:station:DISL:DISL:1,2013-11-01T12:00:00Z,30.2513,-88.0778,22.83,1111122 
DISL,ioos:station:DISL:DISL:1,2013-11-01T12:30:00Z,30.2513,-88.0778,22.38,1111122 
DISL,ioos:station:DISL:DISL:1,2013-11-01T13:00:00Z,30.2513,-88.0778,21.8,1111122 
DISL,ioos:station:DISL:DISL:1,2013-11-01T13:30:00Z,30.2513,-88.0778,20.13,1111122 
DISL,ioos:station:DISL:DISL:1,2013-11-01T14:00:00Z,30.2513,-88.0778,19.9,1111122 
DISL,ioos:station:DISL:DISL:1,2013-11-01T14:30:00Z,30.2513,-88.0778,19.8,1111122 
DISL,ioos:station:DISL:DISL:1,2013-11-01T15:00:00Z,30.2513,-88.0778,20.21,1111122 
DISL,ioos:station:DISL:DISL:1,2013-11-01T15:30:00Z,30.2513,-88.0778,19.9,1111122 
DISL,ioos:station:DISL:DISL:1,2013-11-01T16:00:00Z,30.2513,-88.0778,19.69,1111122 
DISL,ioos:station:DISL:DISL:1,2013-11-01T16:30:00Z,30.2513,-88.0778,19.5,1111122 
DISL,ioos:station:DISL:DISL:1,2013-11-01T17:00:00Z,30.2513,-88.0778,19.58,1111122 
DISL,ioos:station:DISL:DISL:1,2013-11-01T17:30:00Z,30.2513,-88.0778,19.27,1111122 
DISL,ioos:station:DISL:DISL:1,2013-11-01T18:00:00Z,30.2513,-88.0778,18.93,1111122 
DISL,ioos:station:DISL:DISL:1,2013-11-01T18:30:00Z,30.2513,-88.0778,19.27,1111122 
DISL,ioos:station:DISL:DISL:1,2013-11-01T19:00:00Z,30.2513,-88.0778,19.48,1111122 
DISL,ioos:station:DISL:DISL:1,2013-11-01T19:30:00Z,30.2513,-88.0778,19.98,1111122 
DISL,ioos:station:DISL:DISL:1,2013-11-01T20:00:00Z,30.2513,-88.0778,20.85,1111122 
DISL,ioos:station:DISL:DISL:1,2013-11-01T20:30:00Z,30.2513,-88.0778,20.96,1111122 
DISL,ioos:station:DISL:DISL:1,2013-11-01T21:00:00Z,30.2513,-88.0778,21.09,1111122 
DISL,ioos:station:DISL:DISL:1,2013-11-01T21:30:00Z,30.2513,-88.0778,20.96,1111122 
DISL,ioos:station:DISL:DISL:1,2013-11-01T22:00:00Z,30.2513,-88.0778,21.23,1111122 
DISL,ioos:station:DISL:DISL:1,2013-11-01T22:30:00Z,30.2513,-88.0778,21.49,1111122 
DISL,ioos:station:DISL:DISL:1,2013-11-01T23:00:00Z,30.2513,-88.0778,20.71,1111122 
DISL,ioos:station:DISL:DISL:1,2013-11-01T23:30:00Z,30.2513,-88.0778,20.59,1111122 
DISL,ioos:station:DISL:DISL:1,2013-11-02T00:00:00Z,30.2513,-88.0778,20.57,1111122 
DISL,ioos:station:DISL:DISL:1,2013-11-02T00:30:00Z,30.2513,-88.0778,20.92,1111122 
DISL,ioos:station:DISL:DISL:1,2013-11-02T01:00:00Z,30.2513,-88.0778,21.16,1111122 
DISL,ioos:station:DISL:DISL:1,2013-11-02T01:30:00Z,30.2513,-88.0778,21.56,1111122 
DISL,ioos:station:DISL:DISL:1,2013-11-02T02:00:00Z,30.2513,-88.0778,21.89,1111122 
DISL,ioos:station:DISL:DISL:1,2013-11-02T02:30:00Z,30.2513,-88.0778,21.31,1111122 
DISL,ioos:station:DISL:DISL:1,2013-11-02T03:00:00Z,30.2513,-88.0778,20.45,1111122 
DISL,ioos:station:DISL:DISL:1,2013-11-02T03:30:00Z,30.2513,-88.0778,20.42,1111122 
DISL,ioos:station:DISL:DISL:1,2013-11-02T04:00:00Z,30.2513,-88.0778,20.09,1111122 
DISL,ioos:station:DISL:DISL:1,2013-11-02T04:30:00Z,30.2513,-88.0778,19.89,1111122 
DISL,ioos:station:DISL:DISL:1,2013-11-02T05:00:00Z,30.2513,-88.0778,19.61,1111122 
DISL,ioos:station:DISL:DISL:1,2013-11-02T05:30:00Z,30.2513,-88.0778,19.61,1111122 
DISL,ioos:station:DISL:DISL:1,2013-11-02T06:00:00Z,30.2513,-88.0778,19.61,1111122 
DISL,ioos:station:DISL:DISL:1,2013-11-02T06:30:00Z,30.2513,-88.0778,19.51,1111122 
DISL,ioos:station:DISL:DISL:1,2013-11-02T07:00:00Z,30.2513,-88.0778,19.3,1111122 
DISL,ioos:station:DISL:DISL:1,2013-11-02T07:30:00Z,30.2513,-88.0778,19.17,1111122 
DISL,ioos:station:DISL:DISL:1,2013-11-02T08:00:00Z,30.2513,-88.0778,18.83,1111122 
DISL,ioos:station:DISL:DISL:1,2013-11-02T08:30:00Z,30.2513,-88.0778,18.53,1111122 
DISL,ioos:station:DISL:DISL:1,2013-11-02T09:00:00Z,30.2513,-88.0778,18.67,1111122 
DISL,ioos:station:DISL:DISL:1,2013-11-02T09:30:00Z,30.2513,-88.0778,18.84,1111122 
DISL,ioos:station:DISL:DISL:1,2013-11-02T10:00:00Z,30.2513,-88.0778,18.05,1111122 
DISL,ioos:station:DISL:DISL:1,2013-11-02T10:30:00Z,30.2513,-88.0778,17.68,1111122 
DISL,ioos:station:DISL:DISL:1,2013-11-02T11:00:00Z,30.2513,-88.0778,17.99,1111122 
DISL,ioos:station:DISL:DISL:1,2013-11-02T11:30:00Z,30.2513,-88.0778,17.82,1111122 
DISL,ioos:station:DISL:DISL:1,2013-11-02T12:00:00Z,30.2513,-88.0778,17.51,1111122 
DISL,ioos:station:DISL:DISL:1,2013-11-02T12:30:00Z,30.2513,-88.0778,17.78,1111122 
DISL,ioos:station:DISL:DISL:1,2013-11-02T13:00:00Z,30.2513,-88.0778,17.37,1111122 
DISL,ioos:station:DISL:DISL:1,2013-11-02T13:30:00Z,30.2513,-88.0778,17.4,1111122 
DISL,ioos:station:DISL:DISL:1,2013-11-02T14:00:00Z,30.2513,-88.0778,17.71,1111122 
DISL,ioos:station:DISL:DISL:1,2013-11-02T14:30:00Z,30.2513,-88.0778,18.02,1111122 
DISL,ioos:station:DISL:DISL:1,2013-11-02T15:00:00Z,30.2513,-88.0778,18.28,1111122 
DISL,ioos:station:DISL:DISL:1,2013-11-02T15:30:00Z,30.2513,-88.0778,19.06,1111122 
DISL,ioos:station:DISL:DISL:1,2013-11-02T16:00:00Z,30.2513,-88.0778,19.53,1111122 
DISL,ioos:station:DISL:DISL:1,2013-11-02T16:30:00Z,30.2513,-88.0778,19.97,1111122 
DISL,ioos:station:DISL:DISL:1,2013-11-02T17:00:00Z,30.2513,-88.0778,20.41,1111122 
DISL,ioos:station:DISL:DISL:1,2013-11-02T17:30:00Z,30.2513,-88.0778,20.47,1111122 
DISL,ioos:station:DISL:DISL:1,2013-11-02T18:00:00Z,30.2513,-88.0778,20.87,1111122 
DISL,ioos:station:DISL:DISL:1,2013-11-02T18:30:00Z,30.2513,-88.0778,21.37,1111122 
DISL,ioos:station:DISL:DISL:1,2013-11-02T19:00:00Z,30.2513,-88.0778,21.69,1111122 
DISL,ioos:station:DISL:DISL:1,2013-11-02T19:30:00Z,30.2513,-88.0778,21.81,1111122 
DISL,ioos:station:DISL:DISL:1,2013-11-02T20:00:00Z,30.2513,-88.0778,22.04,1111122 
DISL,ioos:station:DISL:DISL:1,2013-11-02T20:30:00Z,30.2513,-88.0778,22.32,1111122 
DISL,ioos:station:DISL:DISL:1,2013-11-02T21:00:00Z,30.2513,-88.0778,22.28,1111122 
DISL,ioos:station:DISL:DISL:1,2013-11-02T21:30:00Z,30.2513,-88.0778,22.59,1111122 
DISL,ioos:station:DISL:DISL:1,2013-11-02T22:00:00Z,30.2513,-88.0778,22.21,1111122 
DISL,ioos:station:DISL:DISL:1,2013-11-02T22:30:00Z,30.2513,-88.0778,21.89,1111122 
DISL,ioos:station:DISL:DISL:1,2013-11-02T23:00:00Z,30.2513,-88.0778,21.56,1111122 
DISL,ioos:station:DISL:DISL:1,2013-11-02T23:30:00Z,30.2513,-88.0778,21.03,1111122 
DISL,ioos:station:DISL:DISL:1,2013-11-03T00:00:00Z,30.2513,-88.0778,20.55,1111122 
DISL,ioos:station:DISL:DISL:1,2013-11-03T00:30:00Z,30.2513,-88.0778,20.14,1111122 
DISL,ioos:station:DISL:DISL:1,2013-11-03T01:00:00Z,30.2513,-88.0778,19.68,1111122 
DISL,ioos:station:DISL:DISL:1,2013-11-03T01:30:00Z,30.2513,-88.0778,19.34,1111122 
DISL,ioos:station:DISL:DISL:1,2013-11-03T02:00:00Z,30.2513,-88.0778,18.96,1111122 
DISL,ioos:station:DISL:DISL:1,2013-11-03T02:30:00Z,30.2513,-88.0778,18.69,1111122 
DISL,ioos:station:DISL:DISL:1,2013-11-03T03:00:00Z,30.2513,-88.0778,17.91,1111122 
DISL,ioos:station:DISL:DISL:1,2013-11-03T03:30:00Z,30.2513,-88.0778,17.3,1111122 
DISL,ioos:station:DISL:DISL:1,2013-11-03T04:00:00Z,30.2513,-88.0778,17.23,1111122 
DISL,ioos:station:DISL:DISL:1,2013-11-03T04:30:00Z,30.2513,-88.0778,16.85,1111122 
DISL,ioos:station:DISL:DISL:1,2013-11-03T05:00:00Z,30.2513,-88.0778,16.68,1111122 
DISL,ioos:station:DISL:DISL:1,2013-11-03T05:30:00Z,30.2513,-88.0778,16.39,1111122 
DISL,ioos:station:DISL:DISL:1,2013-11-03T06:00:00Z,30.2513,-88.0778,16.02,1111122 
DISL,ioos:station:DISL:DISL:1,2013-11-03T06:30:00Z,30.2513,-88.0778,15.98,1111122 
DISL,ioos:station:DISL:DISL:1,2013-11-03T07:00:00Z,30.2513,-88.0778,15.47,1111122 
DISL,ioos:station:DISL:DISL:1,2013-11-03T07:30:00Z,30.2513,-88.0778,15.34,1111122 
DISL,ioos:station:DISL:DISL:1,2013-11-03T08:00:00Z,30.2513,-88.0778,14.93,1111122 
DISL,ioos:station:DISL:DISL:1,2013-11-03T08:30:00Z,30.2513,-88.0778,14.73,1111122 
DISL,ioos:station:DISL:DISL:1,2013-11-03T09:00:00Z,30.2513,-88.0778,14.59,1111122 
DISL,ioos:station:DISL:DISL:1,2013-11-03T09:30:00Z,30.2513,-88.0778,14.28,1111122 
DISL,ioos:station:DISL:DISL:1,2013-11-03T10:00:00Z,30.2513,-88.0778,14.25,1111122 
DISL,ioos:station:DISL:DISL:1,2013-11-03T10:30:00Z,30.2513,-88.0778,14.28,1111122 
DISL,ioos:station:DISL:DISL:1,2013-11-03T11:00:00Z,30.2513,-88.0778,13.84,1111122 
DISL,ioos:station:DISL:DISL:1,2013-11-03T11:30:00Z,30.2513,-88.0778,13.77,1111122 
DISL,ioos:station:DISL:DISL:1,2013-11-03T12:00:00Z,30.2513,-88.0778,13.53,1111122 
DISL,ioos:station:DISL:DISL:1,2013-11-03T12:30:00Z,30.2513,-88.0778,13.65,1111122 
DISL,ioos:station:DISL:DISL:1,2013-11-03T13:00:00Z,30.2513,-88.0778,13.39,1111122 
DISL,ioos:station:DISL:DISL:1,2013-11-03T13:30:00Z,30.2513,-88.0778,13.05,1111122 
DISL,ioos:station:DISL:DISL:1,2013-11-03T14:00:00Z,30.2513,-88.0778,12.94,1111122 
DISL,ioos:station:DISL:DISL:1,2013-11-03T14:30:00Z,30.2513,-88.0778,13.11,1111122 
DISL,ioos:station:DISL:DISL:1,2013-11-03T15:00:00Z,30.2513,-88.0778,13.35,1111122 
DISL,ioos:station:DISL:DISL:1,2013-11-03T15:30:00Z,30.2513,-88.0778,14.09,1111122 
DISL,ioos:station:DISL:DISL:1,2013-11-03T16:00:00Z,30.2513,-88.0778,14.5,1111122 
DISL,ioos:station:DISL:DISL:1,2013-11-03T16:30:00Z,30.2513,-88.0778,14.99,1111122 
DISL,ioos:station:DISL:DISL:1,2013-11-03T17:00:00Z,30.2513,-88.0778,15.28,1111122 
DISL,ioos:station:DISL:DISL:1,2013-11-03T17:30:00Z,30.2513,-88.0778,15.76,1111122 
DISL,ioos:station:DISL:DISL:1,2013-11-03T18:00:00Z,30.2513,-88.0778,16.06,1111122 
DISL,ioos:station:DISL:DISL:1,2013-11-03T18:30:00Z,30.2513,-88.0778,16.66,1111122 
DISL,ioos:station:DISL:DISL:1,2013-11-03T19:00:00Z,30.2513,-88.0778,16.93,1111122 
DISL,ioos:station:DISL:DISL:1,2013-11-03T19:30:00Z,30.2513,-88.0778,17.4,1111122 
DISL,ioos:station:DISL:DISL:1,2013-11-03T20:00:00Z,30.2513,-88.0778,17.77,1111122 
DISL,ioos:station:DISL:DISL:1,2013-11-03T20:30:00Z,30.2513,-88.0778,17.7,1111122 
DISL,ioos:station:DISL:DISL:1,2013-11-03T21:00:00Z,30.2513,-88.0778,17.77,1111122 
DISL,ioos:station:DISL:DISL:1,2013-11-03T21:30:00Z,30.2513,-88.0778,18.08,1111122 
DISL,ioos:station:DISL:DISL:1,2013-11-03T22:00:00Z,30.2513,-88.0778,18.19,1111122 
DISL,ioos:station:DISL:DISL:1,2013-11-03T22:30:00Z,30.2513,-88.0778,18.56,1111122 
DISL,ioos:station:DISL:DISL:1,2013-11-03T23:00:00Z,30.2513,-88.0778,18.1,1111122 
DISL,ioos:station:DISL:DISL:1,2013-11-03T23:30:00Z,30.2513,-88.0778,18.36,1111122 
DISL,ioos:station:DISL:DISL:1,2013-11-04T00:00:00Z,30.2513,-88.0778,18.71,1111122 
DISL,ioos:station:DISL:DISL:1,2013-11-04T00:30:00Z,30.2513,-88.0778,18.71,1111122 
DISL,ioos:station:DISL:DISL:1,2013-11-04T01:00:00Z,30.2513,-88.0778,18.64,1111122 
DISL,ioos:station:DISL:DISL:1,2013-11-04T01:30:00Z,30.2513,-88.0778,18.71,1111122 
DISL,ioos:station:DISL:DISL:1,2013-11-04T02:00:00Z,30.2513,-88.0778,18.57,1111122 
DISL,ioos:station:DISL:DISL:1,2013-11-04T02:30:00Z,30.2513,-88.0778,18.6,1111122 
DISL,ioos:station:DISL:DISL:1,2013-11-04T03:00:00Z,30.2513,-88.0778,18.74,1111122 
DISL,ioos:station:DISL:DISL:1,2013-11-04T03:30:00Z,30.2513,-88.0778,18.67,1111122 
DISL,ioos:station:DISL:DISL:1,2013-11-04T04:00:00Z,30.2513,-88.0778,18.29,1111122 
DISL,ioos:station:DISL:DISL:1,2013-11-04T04:30:00Z,30.2513,-88.0778,18.33,1111122 
DISL,ioos:station:DISL:DISL:1,2013-11-04T05:00:00Z,30.2513,-88.0778,18.3,1111122 
DISL,ioos:station:DISL:DISL:1,2013-11-04T05:30:00Z,30.2513,-88.0778,18.19,1111122 
DISL,ioos:station:DISL:DISL:1,2013-11-04T06:00:00Z,30.2513,-88.0778,18.02,1111122 
DISL,ioos:station:DISL:DISL:1,2013-11-04T06:30:00Z,30.2513,-88.0778,17.85,1111122 
DISL,ioos:station:DISL:DISL:1,2013-11-04T07:00:00Z,30.2513,-88.0778,17.61,1111122 
DISL,ioos:station:DISL:DISL:1,2013-11-04T07:30:00Z,30.2513,-88.0778,17.3,1111122 
DISL,ioos:station:DISL:DISL:1,2013-11-04T08:00:00Z,30.2513,-88.0778,17.06,1111122 
DISL,ioos:station:DISL:DISL:1,2013-11-04T08:30:00Z,30.2513,-88.0778,17.28,1111122 
DISL,ioos:station:DISL:DISL:1,2013-11-04T09:00:00Z,30.2513,-88.0778,16.94,1111122 
DISL,ioos:station:DISL:DISL:1,2013-11-04T09:30:00Z,30.2513,-88.0778,16.74,1111122 
DISL,ioos:station:DISL:DISL:1,2013-11-04T10:00:00Z,30.2513,-88.0778,16.6,1111122 
DISL,ioos:station:DISL:DISL:1,2013-11-04T10:30:00Z,30.2513,-88.0778,16.53,1111122 
DISL,ioos:station:DISL:DISL:1,2013-11-04T11:00:00Z,30.2513,-88.0778,16.67,1111122 
DISL,ioos:station:DISL:DISL:1,2013-11-04T11:30:00Z,30.2513,-88.0778,16.6,1111122 
DISL,ioos:station:DISL:DISL:1,2013-11-04T12:00:00Z,30.2513,-88.0778,16.19,1111122 
DISL,ioos:station:DISL:DISL:1,2013-11-04T12:30:00Z,30.2513,-88.0778,16.5,1111122 
DISL,ioos:station:DISL:DISL:1,2013-11-04T13:00:00Z,30.2513,-88.0778,16.15,1111122 
DISL,ioos:station:DISL:DISL:1,2013-11-04T13:30:00Z,30.2513,-88.0778,16.12,1111122 
DISL,ioos:station:DISL:DISL:1,2013-11-04T14:00:00Z,30.2513,-88.0778,16.52,1111122 
DISL,ioos:station:DISL:DISL:1,2013-11-04T14:30:00Z,30.2513,-88.0778,16.92,1111122 
DISL,ioos:station:DISL:DISL:1,2013-11-04T15:00:00Z,30.2513,-88.0778,17.33,1111122 
DISL,ioos:station:DISL:DISL:1,2013-11-04T15:30:00Z,30.2513,-88.0778,17.44,1111122 
DISL,ioos:station:DISL:DISL:1,2013-11-04T16:00:00Z,30.2513,-88.0778,17.8,1111122 
DISL,ioos:station:DISL:DISL:1,2013-11-04T16:30:00Z,30.2513,-88.0778,18.21,1111122 
DISL,ioos:station:DISL:DISL:1,2013-11-04T17:00:00Z,30.2513,-88.0778,18.24,1111122 
DISL,ioos:station:DISL:DISL:1,2013-11-04T17:30:00Z,30.2513,-88.0778,18.48,1111122 
DISL,ioos:station:DISL:DISL:1,2013-11-04T18:00:00Z,30.2513,-88.0778,18.53,1111122 
DISL,ioos:station:DISL:DISL:1,2013-11-04T18:30:00Z,30.2513,-88.0778,18.84,1111122 
DISL,ioos:station:DISL:DISL:1,2013-11-04T19:00:00Z,30.2513,-88.0778,19.28,1111122 
DISL,ioos:station:DISL:DISL:1,2013-11-04T19:30:00Z,30.2513,-88.0778,19.49,1111122 
DISL,ioos:station:DISL:DISL:1,2013-11-04T20:00:00Z,30.2513,-88.0778,19.83,1111122 
DISL,ioos:station:DISL:DISL:1,2013-11-04T20:30:00Z,30.2513,-88.0778,19.96,1111122 
DISL,ioos:station:DISL:DISL:1,2013-11-04T21:00:00Z,30.2513,-88.0778,20.27,1111122 
DISL,ioos:station:DISL:DISL:1,2013-11-04T21:30:00Z,30.2513,-88.0778,20.27,1111122 
DISL,ioos:station:DISL:DISL:1,2013-11-04T22:00:00Z,30.2513,-88.0778,20.37,1111122 
DISL,ioos:station:DISL:DISL:1,2013-11-04T22:30:00Z,30.2513,-88.0778,20.52,1111122 
DISL,ioos:station:DISL:DISL:1,2013-11-04T23:00:00Z,30.2513,-88.0778,20.52,1111122 
DISL,ioos:station:DISL:DISL:1,2013-11-04T23:30:00Z,30.2513,-88.0778,20.63,1111122 
DISL,ioos:station:DISL:DISL:1,2013-11-05T00:00:00Z,30.2513,-88.0778,20.68,1111122 
DISL,ioos:station:DISL:DISL:1,2013-11-05T00:30:00Z,30.2513,-88.0778,20.74,1111122 
DISL,ioos:station:DISL:DISL:1,2013-11-05T01:00:00Z,30.2513,-88.0778,20.54,1111122 
DISL,ioos:station:DISL:DISL:1,2013-11-05T01:30:00Z,30.2513,-88.0778,20.47,1111122 
DISL,ioos:station:DISL:DISL:1,2013-11-05T02:00:00Z,30.2513,-88.0778,20.37,1111122 
DISL,ioos:station:DISL:DISL:1,2013-11-05T02:30:00Z,30.2513,-88.0778,20.13,1111122 
DISL,ioos:station:DISL:DISL:1,2013-11-05T03:00:00Z,30.2513,-88.0778,20.09,1111122 
DISL,ioos:station:DISL:DISL:1,2013-11-05T03:30:00Z,30.2513,-88.0778,19.68,1111122 
DISL,ioos:station:DISL:DISL:1,2013-11-05T04:00:00Z,30.2513,-88.0778,19.72,1111122 
DISL,ioos:station:DISL:DISL:1,2013-11-05T04:30:00Z,30.2513,-88.0778,19.68,1111122 
DISL,ioos:station:DISL:DISL:1,2013-11-05T05:00:00Z,30.2513,-88.0778,19.58,1111122 
DISL,ioos:station:DISL:DISL:1,2013-11-05T05:30:00Z,30.2513,-88.0778,19.48,1111122 
DISL,ioos:station:DISL:DISL:1,2013-11-05T06:00:00Z,30.2513,-88.0778,19.37,1111122 
DISL,ioos:station:DISL:DISL:1,2013-11-05T06:30:00Z,30.2513,-88.0778,19.1,1111122 
DISL,ioos:station:DISL:DISL:1,2013-11-05T07:00:00Z,30.2513,-88.0778,18.93,1111122 
DISL,ioos:station:DISL:DISL:1,2013-11-05T07:30:00Z,30.2513,-88.0778,18.65,1111122 
DISL,ioos:station:DISL:DISL:1,2013-11-05T08:00:00Z,30.2513,-88.0778,18.31,1111122 
DISL,ioos:station:DISL:DISL:1,2013-11-05T08:30:00Z,30.2513,-88.0778,18.14,1111122 
DISL,ioos:station:DISL:DISL:1,2013-11-05T09:00:00Z,30.2513,-88.0778,17.71,1111122 
DISL,ioos:station:DISL:DISL:1,2013-11-05T09:30:00Z,30.2513,-88.0778,17.37,1111122 
DISL,ioos:station:DISL:DISL:1,2013-11-05T10:00:00Z,30.2513,-88.0778,17.33,1111122 
DISL,ioos:station:DISL:DISL:1,2013-11-05T10:30:00Z,30.2513,-88.0778,17.16,1111122 
DISL,ioos:station:DISL:DISL:1,2013-11-05T11:00:00Z,30.2513,-88.0778,17.33,1111122 
DISL,ioos:station:DISL:DISL:1,2013-11-05T11:30:00Z,30.2513,-88.0778,16.75,1111122 
DISL,ioos:station:DISL:DISL:1,2013-11-05T12:00:00Z,30.2513,-88.0778,16.1,1111122 
DISL,ioos:station:DISL:DISL:1,2013-11-05T12:30:00Z,30.2513,-88.0778,16.15,1111122 
DISL,ioos:station:DISL:DISL:1,2013-11-05T13:00:00Z,30.2513,-88.0778,16.29,1111122 
DISL,ioos:station:DISL:DISL:1,2013-11-05T13:30:00Z,30.2513,-88.0778,16.04,1111122 
DISL,ioos:station:DISL:DISL:1,2013-11-05T14:00:00Z,30.2513,-88.0778,16.1,1111122 
DISL,ioos:station:DISL:DISL:1,2013-11-05T14:30:00Z,30.2513,-88.0778,16.37,1111122 
DISL,ioos:station:DISL:DISL:1,2013-11-05T15:00:00Z,30.2513,-88.0778,16.82,1111122 
DISL,ioos:station:DISL:DISL:1,2013-11-05T15:30:00Z,30.2513,-88.0778,17.51,1111122 
DISL,ioos:station:DISL:DISL:1,2013-11-05T16:00:00Z,30.2513,-88.0778,17.53,1111122 
DISL,ioos:station:DISL:DISL:1,2013-11-05T16:30:00Z,30.2513,-88.0778,17.97,1111122 
DISL,ioos:station:DISL:DISL:1,2013-11-05T17:00:00Z,30.2513,-88.0778,18.41,1111122 
DISL,ioos:station:DISL:DISL:1,2013-11-05T17:30:00Z,30.2513,-88.0778,18.72,1111122 
DISL,ioos:station:DISL:DISL:1,2013-11-05T18:00:00Z,30.2513,-88.0778,18.94,1111122 
DISL,ioos:station:DISL:DISL:1,2013-11-05T18:30:00Z,30.2513,-88.0778,19.15,1111122 
DISL,ioos:station:DISL:DISL:1,2013-11-05T19:00:00Z,30.2513,-88.0778,19.21,1111122 
DISL,ioos:station:DISL:DISL:1,2013-11-05T19:30:00Z,30.2513,-88.0778,19.93,1111122 
DISL,ioos:station:DISL:DISL:1,2013-11-05T20:00:00Z,30.2513,-88.0778,20.21,1111122 
DISL,ioos:station:DISL:DISL:1,2013-11-05T20:30:00Z,30.2513,-88.0778,20.48,1111122 
DISL,ioos:station:DISL:DISL:1,2013-11-05T21:00:00Z,30.2513,-88.0778,20.72,1111122 
DISL,ioos:station:DISL:DISL:1,2013-11-05T21:30:00Z,30.2513,-88.0778,20.99,1111122 
DISL,ioos:station:DISL:DISL:1,2013-11-05T22:00:00Z,30.2513,-88.0778,21.18,1111122 
DISL,ioos:station:DISL:DISL:1,2013-11-05T22:30:00Z,30.2513,-88.0778,21.08,1111122 
DISL,ioos:station:DISL:DISL:1,2013-11-05T23:00:00Z,30.2513,-88.0778,21.17,1111122 
DISL,ioos:station:DISL:DISL:1,2013-11-05T23:30:00Z,30.2513,-88.0778,21.13,1111122 
DISL,ioos:station:DISL:DISL:1,2013-11-06T00:00:00Z,30.2513,-88.0778,20.93,1111122 
DISL,ioos:station:DISL:DISL:1,2013-11-06T00:30:00Z,30.2513,-88.0778,20.9,1111122 
DISL,ioos:station:DISL:DISL:1,2013-11-06T01:00:00Z,30.2513,-88.0778,21.0,1111122 
DISL,ioos:station:DISL:DISL:1,2013-11-06T01:30:00Z,30.2513,-88.0778,21.0,1111122 
DISL,ioos:station:DISL:DISL:1,2013-11-06T02:00:00Z,30.2513,-88.0778,20.76,1111122 
DISL,ioos:station:DISL:DISL:1,2013-11-06T02:30:00Z,30.2513,-88.0778,20.52,1111122 
DISL,ioos:station:DISL:DISL:1,2013-11-06T03:00:00Z,30.2513,-88.0778,20.18,1111122 
DISL,ioos:station:DISL:DISL:1,2013-11-06T03:30:00Z,30.2513,-88.0778,19.99,1111122 
DISL,ioos:station:DISL:DISL:1,2013-11-06T04:00:00Z,30.2513,-88.0778,19.96,1111122 
DISL,ioos:station:DISL:DISL:1,2013-11-06T04:30:00Z,30.2513,-88.0778,19.85,1111122 
DISL,ioos:station:DISL:DISL:1,2013-11-06T05:00:00Z,30.2513,-88.0778,19.72,1111122 
DISL,ioos:station:DISL:DISL:1,2013-11-06T05:30:00Z,30.2513,-88.0778,19.54,1111122 
DISL,ioos:station:DISL:DISL:1,2013-11-06T06:00:00Z,30.2513,-88.0778,19.34,1111122 
DISL,ioos:station:DISL:DISL:1,2013-11-06T06:30:00Z,30.2513,-88.0778,19.27,1111122 
DISL,ioos:station:DISL:DISL:1,2013-11-06T07:00:00Z,30.2513,-88.0778,19.0,1111122 
DISL,ioos:station:DISL:DISL:1,2013-11-06T07:30:00Z,30.2513,-88.0778,18.62,1111122 
DISL,ioos:station:DISL:DISL:1,2013-11-06T08:00:00Z,30.2513,-88.0778,18.31,1111122 
DISL,ioos:station:DISL:DISL:1,2013-11-06T08:30:00Z,30.2513,-88.0778,18.1,1111122 
DISL,ioos:station:DISL:DISL:1,2013-11-06T09:00:00Z,30.2513,-88.0778,18.08,1111122 
DISL,ioos:station:DISL:DISL:1,2013-11-06T09:30:00Z,30.2513,-88.0778,18.09,1111122 
DISL,ioos:station:DISL:DISL:1,2013-11-06T10:00:00Z,30.2513,-88.0778,17.95,1111122 
DISL,ioos:station:DISL:DISL:1,2013-11-06T10:30:00Z,30.2513,-88.0778,17.75,1111122 
DISL,ioos:station:DISL:DISL:1,2013-11-06T11:00:00Z,30.2513,-88.0778,17.88,1111122 
DISL,ioos:station:DISL:DISL:1,2013-11-06T11:30:00Z,30.2513,-88.0778,17.44,1111122 
DISL,ioos:station:DISL:DISL:1,2013-11-06T12:00:00Z,30.2513,-88.0778,17.44,1111122 
DISL,ioos:station:DISL:DISL:1,2013-11-06T12:30:00Z,30.2513,-88.0778,17.64,1111122 
DISL,ioos:station:DISL:DISL:1,2013-11-06T13:00:00Z,30.2513,-88.0778,17.64,1111122 
DISL,ioos:station:DISL:DISL:1,2013-11-06T13:30:00Z,30.2513,-88.0778,18.09,1111122 
DISL,ioos:station:DISL:DISL:1,2013-11-06T14:00:00Z,30.2513,-88.0778,18.32,1111122 
DISL,ioos:station:DISL:DISL:1,2013-11-06T14:30:00Z,30.2513,-88.0778,18.58,1111122 
DISL,ioos:station:DISL:DISL:1,2013-11-06T15:00:00Z,30.2513,-88.0778,19.03,1111122 
DISL,ioos:station:DISL:DISL:1,2013-11-06T15:30:00Z,30.2513,-88.0778,19.49,1111122 
DISL,ioos:station:DISL:DISL:1,2013-11-06T16:00:00Z,30.2513,-88.0778,21.31,1111122 
DISL,ioos:station:DISL:DISL:1,2013-11-06T16:30:00Z,30.2513,-88.0778,21.39,1111122 
DISL,ioos:station:DISL:DISL:1,2013-11-06T17:00:00Z,30.2513,-88.0778,21.11,1111122 
DISL,ioos:station:DISL:DISL:1,2013-11-06T17:30:00Z,30.2513,-88.0778,21.25,1111122 
DISL,ioos:station:DISL:DISL:1,2013-11-06T18:00:00Z,30.2513,-88.0778,21.63,1111122 
DISL,ioos:station:DISL:DISL:1,2013-11-06T18:30:00Z,30.2513,-88.0778,21.62,1111122 
DISL,ioos:station:DISL:DISL:1,2013-11-06T19:00:00Z,30.2513,-88.0778,21.68,1111122 
DISL,ioos:station:DISL:DISL:1,2013-11-06T19:30:00Z,30.2513,-88.0778,21.71,1111122 
DISL,ioos:station:DISL:DISL:1,2013-11-06T20:00:00Z,30.2513,-88.0778,21.82,1111122 
DISL,ioos:station:DISL:DISL:1,2013-11-06T20:30:00Z,30.2513,-88.0778,21.88,1111122 
DISL,ioos:station:DISL:DISL:1,2013-11-06T21:00:00Z,30.2513,-88.0778,22.05,1111122 
DISL,ioos:station:DISL:DISL:1,2013-11-06T21:30:00Z,30.2513,-88.0778,22.02,1111122 
DISL,ioos:station:DISL:DISL:1,2013-11-06T22:00:00Z,30.2513,-88.0778,21.66,1111122 
DISL,ioos:station:DISL:DISL:1,2013-11-06T22:30:00Z,30.2513,-88.0778,21.63,1111122 
DISL,ioos:station:DISL:DISL:1,2013-11-06T23:00:00Z,30.2513,-88.0778,21.5,1111122 
DISL,ioos:station:DISL:DISL:1,2013-11-06T23:30:00Z,30.2513,-88.0778,21.41,1111122 